Weather History for Naples, FL

Change the Weather History Date:

Friday, January 11, 2013

  Actual Average Record
Temperature  
Mean Temperature 74 °F 64 °F  
Max Temperature 84 °F 75 °F 86 °F (2012)
Min Temperature 64 °F 54 °F 30 °F (1970)
Degree Days  
Heating Degree Days 0 4  
Month to date heating degree days 0 38  
Since 1 July heating degree days 49 116  
Cooling Degree Days 9 3  
Month to date cooling degree days 100 33  
Year to date cooling degree days 100 33  
Growing Degree Days 22 (Base 50)    
Moisture  
Dew Point 64 °F    
Average Humidity 74    
Maximum Humidity 100    
Minimum Humidity 47    
Precipitation  
Precipitation 0.00 in 0.06 in 1.18 in (1973)
Month to date precipitation 0.11 0.60  
Year to date precipitation 0.11 0.60  
Snow  
Snow 0.00 in - - ()
Month to date snowfall 0.0  
Since 1 July snowfall 0.0  
Snow Depth 0.00 in    
Sea Level Pressure  
Sea Level Pressure 30.18 in    
Wind  
Wind Speed 7 mph (East)    
Max Wind Speed 16 mph    
Max Gust Speed 21 mph    
Visibility 10 miles    
Events      
T = Trace of Precipitation, MM = Missing Value Source: NWS Daily Summary

Daily Weather History Graph

Daily Weather History Graph

Search for Another Location

Airport:

Trip Planner

Search our weather history database for the weather conditions in past years. The results will help you decide how hot, cold, wet, or windy it might be!

Date:

Astronomy

Jan. 11, 2013 Rise Set
Actual Time 7:16 AM EST 5:54 PM EST
Civil Twilight 6:51 AM EST 6:19 PM EST
Nautical Twilight 6:22 AM EST 6:47 PM EST
Astronomical Twilight 5:54 AM EST 7:15 PM EST
Moon 6:52 AM EST (1/11) 6:05 PM EST (1/11)
Length of Visible Light 11h 28m
Length of Day
10h 38m
Waning Crescent, 0% of the Moon is Illuminated
Jan 11
Waning Crescent
Jan 11
New
Jan 18
First Quarter
Jan 26
Full
Feb 3
Last Quarter

Hourly Weather History & Observations

Time (EST) Temp. Heat Index Dew Point Humidity Pressure Visibility Wind Dir Wind Speed Gust Speed Precip Events Conditions
12:53 AM 66.9 °F - 64.9 °F 93% 30.24 in 9.0 mi ENE 6.9 mph - N/A   Clear
1:53 AM 66.0 °F - 64.9 °F 96% 30.23 in 9.0 mi ENE 6.9 mph - N/A   Clear
2:53 AM 66.0 °F - 64.9 °F 96% 30.21 in 9.0 mi East 5.8 mph - N/A   Clear
3:53 AM 66.0 °F - 64.9 °F 96% 30.19 in 10.0 mi East 5.8 mph - N/A   Clear
4:53 AM 66.0 °F - 64.9 °F 96% 30.19 in 10.0 mi NNE 4.6 mph - N/A   Clear
5:53 AM 64.0 °F - 64.0 °F 100% 30.18 in 8.0 mi ENE 5.8 mph - N/A   Clear
6:53 AM 64.0 °F - 64.0 °F 100% 30.19 in 8.0 mi ENE 5.8 mph - N/A   Clear
7:53 AM 64.9 °F - 64.9 °F 100% 30.19 in 7.0 mi East 5.8 mph - N/A   Clear
8:53 AM 69.1 °F - 66.9 °F 93% 30.21 in 8.0 mi East 4.6 mph - N/A   Clear
9:53 AM 75.0 °F - 66.9 °F 76% 30.22 in 10.0 mi ESE 8.1 mph - N/A   Clear
10:53 AM 79.0 °F - 66.0 °F 64% 30.23 in 10.0 mi SE 10.4 mph - N/A   Scattered Clouds
11:53 AM 81.0 °F 81.9 °F 62.1 °F 52% 30.21 in 10.0 mi ESE 6.9 mph - N/A   Scattered Clouds
12:53 PM 81.0 °F 82.2 °F 63.0 °F 54% 30.17 in 10.0 mi ESE 8.1 mph - N/A   Partly Cloudy
1:53 PM 81.0 °F 81.9 °F 62.1 °F 52% 30.15 in 10.0 mi SE 10.4 mph - N/A   Scattered Clouds
3:53 PM 81.0 °F 81.9 °F 62.1 °F 52% 30.13 in 10.0 mi SE 10.4 mph - N/A   Scattered Clouds
4:53 PM 81.0 °F 81.9 °F 62.1 °F 52% 30.13 in 10.0 mi ESE 11.5 mph - N/A   Clear
5:53 PM 78.1 °F - 63.0 °F 60% 30.13 in 10.0 mi ESE 9.2 mph - N/A   Clear
6:53 PM 75.0 °F - 64.0 °F 69% 30.14 in 10.0 mi ESE 6.9 mph - N/A   Clear
7:53 PM 73.9 °F - 64.9 °F 73% 30.16 in 10.0 mi East 4.6 mph - N/A   Clear
8:53 PM 72.0 °F - 64.9 °F 78% 30.16 in 10.0 mi East 4.6 mph - N/A   Clear
9:53 PM 69.1 °F - 64.0 °F 84% 30.16 in 10.0 mi East 5.8 mph - N/A   Clear
10:53 PM 68.0 °F - 64.9 °F 90% 30.17 in 10.0 mi ENE 4.6 mph - N/A   Clear
11:53 PM 66.9 °F - 64.9 °F 93% 30.16 in 10.0 mi NE 4.6 mph - N/A   Clear